Home   Weather   Choloma   Past weeks
Flag for Honduras

Past Weather in Choloma, Honduras — Yesterday and Last 2 Weeks

Now
88 °F

Passing clouds.


Feels Like: 94 °F
Forecast: 85 / 74 °F
Wind: 10 mph from South

Location: La Mesa San Pedro Sula

Current Time: Oct 21, 2019 at 10:16:59 am

Latest Report: Oct 21, 2019 at 9:00 am


Visibility: N/A

Pressure: 29.89 "Hg

Humidity: 59%

Dew Point: 72 °F

Location of CholomaLocation

Past Weather in Choloma — Graph

°F

Choloma Temperature Yesterday

Maximum temperature yesterday: 95 °F (at 1:00 pm)
Minimum temperature yesterday: 66 °F (at 9:00 pm)
Average temperature yesterday: 86 °F

High & Low Weather Summary for the Past Weeks

 TemperatureHumidityPressure
High97 °F (Oct 16, 2:00 pm)100% (Oct 8, 1:00 am)29.92 "Hg (Oct 8, 1:00 am)
Low66 °F (Oct 20, 9:00 pm)42% (Oct 18, 3:00 pm)29.71 "Hg (Oct 6, 4:00 pm)
Average83 °F77%29.83 "Hg
* Reported Oct 6 10:00 am — Oct 21 9:00 am, Choloma. Weather by CustomWeather, © 2019

Note: Actual official high and low records may vary slightly from our data, if they occured in-between our weather recording intervals... More about our weather records

Advertising

Choloma Weather History for the Previous 24 Hours

Scroll right to see more
 ConditionsComfort  
Time TempWeatherWind HumidityBarometerVisibility
9:00 am
Mon, Oct 21
88 °FPassing clouds.10 mph59%29.89 "HgN/A
8:00 am86 °FScattered clouds.9 mph62%29.89 "HgN/A
7:00 am81 °FScattered clouds.3 mph79%29.86 "HgN/A
6:00 am77 °FPartly sunny.No wind89%29.83 "HgN/A
12:00 am81 °FPassing clouds.No wind89%29.83 "HgN/A
11:00 pm
Sun, Oct 20
82 °FPassing clouds.2 mph84%29.86 "HgN/A
10:00 pm82 °FPassing clouds.5 mph84%29.86 "HgN/A
9:00 pm66 °FPassing clouds.5 mph100%29.83 "HgN/A
8:00 pm84 °FPassing clouds.7 mph74%29.83 "HgN/A
7:00 pm84 °FPassing clouds.7 mph74%29.80 "HgN/A
6:00 pm86 °FPassing clouds.7 mph70%29.77 "HgN/A
5:00 pm90 °FPassing clouds.14 mph63%29.77 "HgN/A
4:00 pm90 °FBroken clouds.10 mph75%29.77 "HgN/A
3:00 pm95 °FScattered clouds.9 mph47%29.74 "HgN/A
2:00 pm95 °FScattered clouds.5 mph44%29.77 "HgN/A
1:00 pm95 °FScattered clouds.5 mph47%29.77 "HgN/A
12:00 pm93 °FPassing clouds.7 mph53%29.83 "HgN/A
11:00 am93 °FPassing clouds.5 mph53%29.83 "HgN/A
10:00 am90 °FPassing clouds.7 mph59%29.86 "HgN/A
Weather by CustomWeather, © 2019

See weather overview